Regional Weather Roundup
Issued by NWS

Home | Current Version | Previous Version | Text Only | Print | Product List | Glossary Off
Versions: 1 2 3 4 5 6 7 8 9 10 11 12 13 14 15 16 17 18 19 20 21 22 23 24 25 26 27 28 29 30 31 32 33 34 35 36 37 38 39 40 41 42 43 44 45 46 47 48 49 50

000
ASUS43 KMPX 260301
RWRMN
WEATHER ROUNDUP FOR MINNESOTA
NATIONAL WEATHER SERVICE TWIN CITIES/CHANHASSEN MN
1000 PM CDT THU MAY 25 2017


NOTE: "FAIR" INDICATES FEW OR NO CLOUDS BELOW 12,000 FEET WITH NO
SIGNIFICANT WEATHER AND/OR OBSTRUCTIONS TO VISIBILITY. N/A MEANS
CURRENT SKY AND/OR WEATHER CONDITIONS ARE NOT AVAILABLE.

MNZ060>063-068>070-260400-
   Twin Cities Metro

CITY           SKY/WX    TMP DP  RH WIND       PRES   REMARKS
TWIN CITIES    LGT RAIN  65  53  65 S7        29.67R
ST PAUL        CLOUDY    64  54  69 SE8       29.67S
CRYSTAL        LGT RAIN  63  52  67 CALM      29.65R
BLAINE         RAIN      64  55  72 CALM      29.67R
LAKEVILLE      LGT RAIN  63  55  77 CALM      29.68R
EDEN PRAIRIE   LGT RAIN  63  54  72 SE9       29.66R
SOUTH ST PAUL  MOCLDY    65  52  62 SE3       29.67S
LAKE ELMO      MOCLDY    63  54  72 SE6       29.69S
$$
MNZ001>005-007-008-013>017-022>024-027-028-260400-
   Northwest Minnesota

CITY           SKY/WX    TMP DP  RH WIND       PRES   REMARKS
BEMIDJI        CLOUDY    59  49  70 SE9       29.63R
HALLOCK        PTCLDY    63  48  59 SE13      29.51R
ROSEAU         CLOUDY    63  52  67 SE10      29.59R
WARROAD        CLOUDY    63  50  63 S12       29.61R
CROOKSTON      PTCLDY    61  48  63 S13       29.55R
FOSSTON        CLOUDY    61  48  63 SE12      29.60R
DETROIT LAKES  CLOUDY    61  50  67 SE12      29.62R
MOORHEAD       PTCLDY    64  52  63 S16       29.57R
PARK RAPIDS    LGT RAIN  62  47  57 SE13      29.63R
MAHNOMEN       CLOUDY    62  49  63 S14G22    29.59R
$$
MNZ006-009>011-018-025>026-260400-
   North Central Minnesota

CITY           SKY/WX    TMP DP  RH WIND       PRES   REMARKS
BAUDETTE       CLOUDY    61  47  59 S9        29.63R
FLAG ISLAND    CLOUDY    57  50  77 SE14      29.59S
INTL FALLS     CLOUDY    59  47  64 SE6       29.65S
WASKISH        CLOUDY    61  50  67 SE8       29.63S
BIG FORK       LGT RAIN  61  48  63 SE7       29.67R
LONGVILLE      CLOUDY    59  50  72 SE3       29.66R
GRAND RAPIDS   CLOUDY    58  46  64 VRB7      29.70R
CRANE LAKE     PTCLDY    57  48  72 CALM      29.71R
ORR            CLOUDY    61  45  55 SE7       29.67R
COOK           CLOUDY    61  46  59 SE6       29.71R
WALKER         CLOUDY    58  49  72 SE7       29.64R
$$
MNZ012-019>021-037-260400-
   Northeast Minnesota

CITY           SKY/WX    TMP DP  RH WIND       PRES   REMARKS
DULUTH         MOCLDY    55  44  66 E10       29.71R
ELY            MOCLDY    55  43  62 SE5       29.73R
HIBBING        CLOUDY    56  45  66 SE8       29.70R
EVELETH        CLOUDY    58  42  56 CALM      29.72R
DULUTH HARBOR  CLOUDY    46  43  87 E6        29.73S
TWO HARBORS    CLOUDY    55  45  67 NE8       29.72R
SILVER BAY     CLOUDY    54  45  71 NE8       29.73R
GRAND MARAIS     N/A     47  41  80 NE7       29.74R
G MARAIS ARPRT CLEAR     52  37  58 NE6       29.77R
$$
MNZ029>031-032-039>041-046>048-054>057-064-260400-
   West Central Minnesota

CITY           SKY/WX    TMP DP  RH WIND       PRES   REMARKS
FERGUS FALLS   CLOUDY    63  52  67 S10       29.58R
WHEATON        CLOUDY    61  52  72 S10       29.60R
MORRIS         CLOUDY    59  54  82 SE7       29.61R
ALEXANDRIA     CLOUDY    61  52  72 SE10      29.64R
ELBOW LAKE     MOCLDY    58  53  84 SE8       29.61R
WADENA         CLOUDY    57  52  82 SE8       29.63R
GLENWOOD       CLOUDY    59  54  82 SE8       29.65R
APPLETON       MOCLDY    61  54  77 SE5       29.61R
BENSON         CLOUDY    63  54  72 S10       29.63R
ORTONVILLE     CLOUDY    57  52  82 SE6       29.59S
MADISON        CLEAR     61  59  94 S3        29.62R
WILLMAR        CLOUDY    63  54  72 SE9       29.65R
$$
MNZ033>034-036-042>043-049>051-058-059-260400-
   Central Minnesota

CITY           SKY/WX    TMP DP  RH WIND       PRES   REMARKS
ST CLOUD       CLOUDY    60  55  83 SE5       29.66R
SAUK CENTRE    CLOUDY    58  53  82 SE7       29.65R
PAYNESVILLE    CLOUDY    60  53  77 SE5       29.66R
AITKIN         RAIN      55  50  82 E5        29.67R
PINE RIVER     LGT RAIN  57  54  88 SE5       29.70R
BRAINERD       LGT RAIN  57  53  86 E3        29.66R
STAPLES        CLOUDY    55  52  88 SE3       29.65R
LONG PRAIRIE   CLOUDY    57  52  82 E7        29.66R
LITTLE FALLS   RAIN      59  52  77 SE7       29.67R
LITCHFIELD     MOCLDY    63  54  72 SE7       29.67R
BUFFALO        CLOUDY    61  53  75 SE3       29.68R
MAPLE LAKE     CLOUDY    61  56  81 SE5       29.68R
HUTCHINSON     MOCLDY    62  55  78 SE8       29.67R
$$
MNZ037-044-045-052-053-260400-
   East Central Minnesota

CITY           SKY/WX    TMP DP  RH WIND       PRES   REMARKS
PRINCETON      LGT RAIN  63  54  72 S3        29.67R
MORA           LGT RAIN  59  50  72 E3        29.68R
CAMBRIDGE      LGT RAIN  66  52  59 SE3       29.65R
RUSH CITY      PTCLDY    61  51  70 SE3       29.68R
MOOSE LAKE     CLOUDY    52  43  71 CALM      29.69R
HINCKLEY       CLOUDY    63  52  67 E3        29.68R
CLOQUET        CLOUDY    52  43  71 E6        29.72R
MCGREGOR       CLOUDY    54  46  76 E6        29.70R
$$
MNZ071>073-080-081-089-090-097-098-260400-
   Southwest Minnesota

CITY           SKY/WX    TMP DP  RH WIND       PRES   REMARKS
MONTEVIDEO     CLOUDY    61  54  77 S7        29.62R
CANBY          PTCLDY    57  56  95 CALM      29.63R
MARSHALL       CLOUDY    60  55  83 SE8       29.62R
REDWOOD FALLS  MOCLDY    63  50  62 SE13      29.63R
OLIVIA         CLOUDY    61  52  72 SE7       29.64R
PIPESTONE      PTCLDY    63  48  59 S6        29.62S
WINDOM         CLOUDY    63  50  63 SE10      29.65R
WORTHINGTON    CLEAR     62  53  72 SE9       29.65R
JACKSON        PTCLDY    61  52  72 CALM      29.66S
TRACY          CLOUDY    63  55  76 S6        29.63R
SLAYTON        PTCLDY    58  53  81 SE7       29.64R
$$
MNZ065>067-074>077-082>085-091>093-260400-
   South Central Minnesota

CITY           SKY/WX    TMP DP  RH WIND       PRES   REMARKS
MANKATO        CLOUDY    63  52  67 SE13      29.68R
NEW ULM        MOCLDY    63  52  67 SE12      29.65R
ST JAMES       PTCLDY    61  52  72 SE13      29.67R
FAIRMONT       CLOUDY    61  52  72 SE12      29.68R
GLENCOE        CLOUDY    63  57  81 SE6       29.66R
FARIBAULT      LGT RAIN  64  54  68 S5        29.71R
OWATONNA       LGT RAIN  63  55  77 SW6       29.71R
WASECA         LGT RAIN  63  54  72 SE6       29.72R
ALBERT LEA     CLOUDY    61  57  88 CALM      29.72R
$$
MNZ078>079-086>088-094>096-260400-
   Southeast Minnesota

CITY           SKY/WX    TMP DP  RH WIND       PRES   REMARKS
ROCHESTER      CLOUDY    59  54  83 SE8       29.71R
RED WING       CLOUDY    63  52  67 SE5       29.68S
STANTON        CLOUDY    64  53  66 SE5       29.68R
DODGE CENTER   DRIZZLE   63  54  72 SE3       29.70S
WINONA         PTCLDY    59  54  82 CALM      29.72R
AUSTIN         CLOUDY    61  54  77 CALM      29.71R
PRESTON        MOCLDY    62  53  72 E3        29.72S
$$
ABBREVIATIONS USED IN REMARKS
   TC - TEMPERATURES IN CELSIUS
  WCI - WIND CHILL INDEX
   HX - HEAT INDEX
  VSB - VISIBILITY
$$




USA.gov is the U.S. government's official web portal to all federal, state and local government web resources and services.